Change the Weather History Date:

Saturday, November 2, 2013

  Actual Average Record
Temperature  
Mean Temperature 43 °F 40 °F  
Max Temperature 67 °F 54 °F 74 °F (2008)
Min Temperature 19 °F 25 °F 1 °F (1999)
Degree Days  
Heating Degree Days 22 25  
Month to date heating degree days 51 50  
Since 1 July heating degree days 869 917  
Cooling Degree Days 0 0  
Month to date cooling degree days 0 0  
Year to date cooling degree days 739 486  
Moisture  
Dew Point 21 °F    
Average Humidity 51    
Maximum Humidity 88    
Minimum Humidity 14    
Precipitation  
Precipitation 0.00 in 0.03 in 0.57 in (1987)
Month to date precipitation 0.00 0.06  
Year to date precipitation 7.31 12.40  
Sea Level Pressure  
Sea Level Pressure 29.97 in    
Wind  
Wind Speed 5 mph (South)    
Max Wind Speed 23 mph    
Max Gust Speed 31 mph    
Visibility 10 miles    
Events      
T = Trace of Precipitation, MM = Missing Value Source: NWS Daily Summary

Daily Weather History Graph

Daily Weather History Graph

Search for Another Location

Airport or City:

Trip Planner

Search our weather history database for the weather conditions in past years. The results will help you decide how hot, cold, wet, or windy it might be!

Date:

Astronomy

Nov. 02, 2013 Rise Set
Actual Time 7:37 AM MDT 5:52 PM MDT
Civil Twilight 7:07 AM MDT 6:21 PM MDT
Nautical Twilight 6:34 AM MDT 6:55 PM MDT
Astronomical Twilight 6:01 AM MDT 7:28 PM MDT
Moon 6:36 AM MDT (11/2) 5:25 PM MDT (11/2)
Length of Visible Light 11h 14m
Length of Day
10h 14m
Waning Crescent, 1% of the Moon is Illuminated
Nov 2
Waning Crescent
Nov 3
New
Nov 9
First Quarter
Nov 17
Full
Nov 25
Last Quarter

Hourly Weather History & Observations

Time (MDT) Temp. Windchill Dew Point Humidity Pressure Visibility Wind Dir Wind Speed Gust Speed Precip Events Conditions
12:53 AM 24.1 °F 19.7 °F 19.9 °F 84% 30.24 in 10.0 mi ESE 3.5 mph - N/A   Clear
1:53 AM 23.0 °F 18.4 °F 19.0 °F 85% 30.23 in 10.0 mi ESE 3.5 mph - N/A   Clear
2:53 AM 25.0 °F - 19.0 °F 78% 30.22 in 10.0 mi Calm Calm - N/A   Clear
3:53 AM 21.9 °F - 18.0 °F 85% 30.22 in 10.0 mi Calm Calm - N/A   Clear
4:53 AM 21.9 °F - 18.0 °F 85% 30.20 in 10.0 mi Calm Calm - N/A   Clear
5:53 AM 19.0 °F - 16.0 °F 88% 30.22 in 10.0 mi Calm Calm - N/A   Clear
6:53 AM 21.9 °F 17.2 °F 17.1 °F 82% 30.21 in 10.0 mi South 3.5 mph - N/A   Clear
7:53 AM 21.9 °F - 18.0 °F 85% 30.19 in 10.0 mi Calm Calm - N/A   Clear
8:53 AM 30.0 °F - 24.1 °F 79% 30.15 in 10.0 mi Calm Calm - N/A   Clear
9:53 AM 34.0 °F 31.0 °F 26.1 °F 73% 30.13 in 10.0 mi South 3.5 mph - N/A   Clear
10:53 AM 45.0 °F 40.6 °F 30.0 °F 56% 30.05 in 10.0 mi SE 8.1 mph - N/A   Clear
11:53 AM 53.1 °F - 28.0 °F 38% 30.00 in 10.0 mi SSE 12.7 mph - N/A   Clear
12:53 PM 57.0 °F - 28.9 °F 34% 29.94 in 10.0 mi SE 15.0 mph - N/A   Clear
1:53 PM 61.0 °F - 28.9 °F 30% 29.87 in 10.0 mi SSE 10.4 mph - N/A   Clear
2:53 PM 66.0 °F - 21.9 °F 19% 29.79 in 10.0 mi South 6.9 mph - N/A   Clear
3:53 PM 66.0 °F - 16.0 °F 15% 29.77 in 10.0 mi West 8.1 mph 21.9 mph N/A   Clear
4:53 PM 63.0 °F - 14.0 °F 15% 29.77 in 10.0 mi West 12.7 mph - N/A   Clear
5:53 PM 57.9 °F - 17.1 °F 20% 29.78 in 10.0 mi WSW 11.5 mph - N/A   Clear
6:53 PM 53.1 °F - 18.0 °F 25% 29.77 in 10.0 mi SSW 6.9 mph - N/A   Clear
7:53 PM 53.1 °F - 19.0 °F 26% 29.76 in 10.0 mi Calm Calm - N/A   Clear
8:53 PM 50.0 °F - 19.9 °F 31% 29.75 in 10.0 mi Calm Calm - N/A   Clear
9:53 PM 53.1 °F - 19.0 °F 26% 29.70 in 10.0 mi WSW 6.9 mph - N/A   Clear
10:53 PM 48.0 °F - 19.9 °F 33% 29.67 in 10.0 mi Calm Calm - N/A   Clear
11:53 PM 54.0 °F - 18.0 °F 24% 29.61 in 10.0 mi WSW 16.1 mph - N/A   Clear